Location: *
(51.2167°N, 10.0667°E)
Time: 18:31:23
(UTC+00:00)

CSL-04 Debris - Pass Details

Date: 12 December 2019
Orbit: 827 x 849 km, 99.0° (Epoch: 19 January)

Event Time Altitude Azimuth Distance (km) Brightness Sun altitude
Rises 17:49:45 0° 168° (SSE) 3,388 7.3 -23.4°
Reaches altitude 10° 17:52:07 10° 170° (S) 2,454 6.6 -23.7°
Maximum altitude 17:57:34 74° 256° (WSW) 874 4.3 -24.6°
Drops below altitude 10° 18:03:01 10° 341° (NNW) 2,457 6.7 -25.4°
Sets 18:05:23 0° 344° (NNW) 3,392 7.5 -25.8°
